Jonathan Platt


Stats

» Click to list general statistics » OR, select a date :

General Statistics

Visitors of the poet

Number of visitors of the poet’s mainpage in PoemHunter.Com

Attention : Numbers in this table does not indicate the total hits of poems of the poet, but indicates the hits of the poet’s main page.

Date Hits
12/01/2016 Thursday 6
8%
11/30/2016 Wednesday 42
60%
11/29/2016 Tuesday 42
60%
11/28/2016 Monday 46
65%
11/27/2016 Sunday 16
22%
11/26/2016 Saturday 8
11%
11/25/2016 Friday 7
10%
11/24/2016 Thursday 35
50%
11/23/2016 Wednesday 51
72%
11/22/2016 Tuesday 70
100%
11/21/2016 Monday 53
75%
11/20/2016 Sunday 14
20%
11/19/2016 Saturday 33
47%
11/18/2016 Friday 23
32%
11/17/2016 Thursday 56
80%
11/16/2016 Wednesday 45
64%
11/15/2016 Tuesday 22
31%
11/14/2016 Monday 40
57%
11/13/2016 Sunday 23
32%
11/12/2016 Saturday 26
37%

Reader rating & num.of MyPoemList’s

Click the captions of columns to change the order.

# Poem Title Submit Date Reader Rating Num.of MyPoemList’s
Rating Num.R.
1 Death: The Hunter 03/15/2015 -- 0 0
2 A Deep Regret 03/08/2015 10.0 1 0
3 Love And Power (A Moment's Reflection) 02/02/2013 8.0 1 0
4 Power (A Moment's Reflection) 02/02/2013 -- 0 0
5 Time (A Moment's Reflection) 01/31/2013 10.0 1 0
6 A Dream Has Taken Flight 01/25/2013 10.0 2 0
7 My Mother's Heart 01/25/2013 10.0 1 0
8 Love And Hate (A Moment's Reflection) 01/25/2013 9.5 2 0
9 The Dimensions Of Love 01/22/2013 9.0 1 0
10 A Moment's Contemplation 01/19/2013 10.0 2 0
11 Starlight And Dreams 01/13/2013 10.0 1 0
12 The Creature 'Love' 01/13/2013 9.3 3 1
13 Love Is... 01/12/2013 9.3 3 0
14 I Am The Sponge 01/06/2013 10.0 1 0
15 Immortal Nectar: Rain 01/04/2013 10.0 2 0
16 A Spider's Web 01/01/2013 10.0 1 0
17 The Poem 12/30/2012 9.0 1 0
18 The Moon Is Moored 12/30/2012 10.0 2 0
19 Mesmerized 12/29/2012 -- 0 0
20 Our Hearts Must Persevere 12/29/2012 -- 0 0
21 Faith 12/29/2012 9.5 2 0
22 Our Finest Star 12/29/2012 10.0 1 1
23 The Bubble's Fame 12/28/2012 9.7 3 0
24 Curiosity Was Framed 12/28/2012 -- 0 0
25 Only The Dead Are Shown 12/28/2012 -- 0 0
26 This Tranquility... 12/28/2012 -- 0 0
27 Time's Monument 12/28/2012 -- 0 0
28 Laughter 12/27/2012 -- 0 0
29 My Mind Is Never At Ease 12/27/2012 -- 0 0
30 The Nightmare Appears 12/27/2012 8.0 1 0
31 Our Actions 12/27/2012 -- 0 0
32 Hope Is The Engine Of The Heart 12/27/2012 10.0 2 0
33 Tiny Puddles Of Joy 12/27/2012 -- 0 0
34 Hot Summer Days 12/27/2012 -- 0 0
35 The Darkness That Waits (A Fragment) 12/27/2012 -- 0 0
36 Some Dreams Are Forever 12/27/2012 -- 0 0
37 Boon And Doom 12/27/2012 -- 0 0
38 Secrets 12/27/2012 -- 0 0
39 Looking To The Stars 12/27/2012 -- 0 0
40 From There To Here 12/27/2012 -- 0 0
41 Quicksilver Sky 12/27/2012 -- 0 0
42 Worries 12/27/2012 10.0 2 1
43 Her Loveliness 12/27/2012 -- 0 1
44 Emerging Ember 12/25/2012 9.5 2 0
45 The Oldest City 12/25/2012 9.0 1 0
46 The Blissful Dream 12/25/2012 -- 0 0
47 Flames Of Faith 12/25/2012 -- 0 0
48 Riders Of Mortality 12/25/2012 -- 0 0
49 King Of Death 12/25/2012 -- 0 0
50 There Is A Moment... 12/25/2012 -- 0 0
51 The Last Hour (A Fragment) 12/24/2012 -- 0 0
52 Dreaming... 12/16/2012 10.0 1 0
53 Ecstasy 12/14/2012 9.5 2 0
54 Prayers 12/14/2012 8.0 1 0
55 Heaven's Library 12/14/2012 9.5 2 0
56 When Youth Was My Friend 12/14/2012 10.0 3 0
57 Hannah And The Golden Dew 12/14/2012 -- 0 0
58 Hell-Damage 12/13/2012 -- 0 0
59 The Beauty Of Her Soul 12/12/2012 -- 0 0
60 Alone In The Night 12/11/2012 10.0 2 0
61 The Returning 12/10/2012 10.0 2 0
62 If Love Were A Melody 12/10/2012 7.0 1 0
63 So Lightly I Was Touched 12/09/2012 -- 0 0
64 Lies 12/09/2012 -- 0 0
65 God Is The Hardest Worker 12/09/2012 -- 0 0
66 High Blue Country 12/09/2012 9.0 2 0
67 In Madness, There Is Beauty 12/09/2012 9.0 1 0
68 First Kiss 12/09/2012 10.0 2 0
69 Time Is A Burst Of Lightning 12/09/2012 9.7 3 0
70 It Is Love That Makes The Heart Soar (A Moment's Reflection) 12/09/2012 10.0 1 0
71 Turning Sorrow Into A Smile 12/09/2012 10.0 1 1
72 Looking To Heaven (A Moment's Reflection) 12/09/2012 -- 0 0
73 Lightning Is A Crack 12/09/2012 10.0 2 0
74 The Devil Is Jealous Of Mortals 12/09/2012 -- 0 0
75 Books Create The Wise Man 12/09/2012 8.0 1 0
76 The Angels Made God A Banner 12/09/2012 -- 0 0
77 Time 12/09/2012 9.5 2 0
78 Dreams 12/09/2012 10.0 3 1
79 Butterfly: The Unbridled Flower 12/09/2012 10.0 1 0
80 Our Lives Are Like The Fireflies 12/09/2012 -- 0 0
81 Essence Of The Soul 12/09/2012 10.0 1 0
82 A Dream Begins Dark And Silent 12/09/2012 9.7 3 0
[Report Error]